Tracking 19170 objects as of 22-May-2018
HD Live streaming from Space Station
objects crossing your sky now

COSMOS 2165

Track COSMOS 2165 now!
10-day predictions
COSMOS 2165 is classified as:


NORAD ID: 21779
Int'l Code: 1991-077A
Perigee: 1,402.3 km
Apogee: 1,418.0 km
Inclination: 82.6 °
Period: 113.8 minutes
Semi major axis: 7781 km
RCS: 1.2522 m2 (large)
Launch date: November 12, 1991
Source: Commonwealth of Independent States (former USSR) (CIS)
Launch site: PLESETSK MISSILE AND SPACE COMPLEX (PKMTR)
aabbcc
Your satellite tracking list
Your tracking list is empty




NASA's NSSDC Master Catalog

Two Line Element Set (TLE):
1 21779U 91077A   18142.54940433  .00000035  00000-0  13262-3 0  9993
2 21779  82.6039 314.8522 0010094 291.6769 128.3596 12.64840166224623
Source of the keplerian elements: AFSPC